Simultaneous Nadir Overpasses (SNOs) Predictions

Prediction of SNOs between NOAA-20 and NOAA-19 Satellite Orbit:

Table of predicted SNOs for the next 14.0 days since TLE Epoch: 9/24/2022
Index Date (NOAA-20) Time (NOAA-20) Lat,Lon (NOAA-20) SZA (NOAA-20 ) Date (NOAA-19) Time (NOAA-19) Lat,Lon (NOAA-19) SZA (NOAA-19 ) Distance(km) Time Diff (sec)
1 09/28/2022 08:34:59 76.29, 33.75 78.77 09/28/2022 08:33:46 76.28, 33.02 78.83 19.09 73
2 09/28/2022 09:25:45 -76.38,-159.24 101.12 09/28/2022 09:24:42 -76.40,-159.25 101.08 2.56 63
3 09/28/2022 10:16:31 76.39, 8.03 78.91 09/28/2022 10:15:43 76.40, 7.99 78.94 1.75 48
4 09/28/2022 11:07:16 -76.42, 175.21 101.03 09/28/2022 11:06:42 -76.39, 175.20 101.06 4.18 34
5 09/28/2022 11:58:02 76.43, -17.52 79.00 09/28/2022 11:57:42 76.43, -17.38 78.99 3.86 20
6 09/28/2022 12:48:46 -76.43, 149.82 101.00 09/28/2022 12:48:41 -76.42, 149.83 101.01 1.15 5
7 09/28/2022 13:39:32 76.44, -42.91 79.03 09/28/2022 13:39:42 76.42, -42.92 79.01 2.08 10
8 09/28/2022 14:30:16 -76.43, 124.43 100.97 09/28/2022 14:30:40 -76.45, 124.46 100.96 2.16 24
9 09/28/2022 15:21:02 76.44, -68.30 79.06 09/28/2022 15:21:41 76.45, -68.28 79.06 1.14 39
10 09/28/2022 16:11:46 -76.44, 99.04 100.94 09/28/2022 16:12:40 -76.44, 98.92 100.94 3.26 54
11 09/28/2022 17:02:32 76.45, -93.69 79.09 09/28/2022 17:03:41 76.44, -93.83 79.08 3.64 69
12 09/28/2022 17:53:24 -76.79, 72.30 100.48 09/28/2022 17:54:32 -76.77, 74.78 100.68 63.28 68



Historial Predications of SNOs between NOAA-20 and NOAA-19
